Regional Weather Roundup
Issued by NWS

Home | Current Version | Previous Version | Graphics & Text | Print | Product List | Glossary On
Versions: 1 2 3 4 5 6 7 8 9 10 11 12 13 14 15 16 17 18 19 20 21 22 23 24 25 26 27 28 29 30 31 32 33 34 35 36 37 38 39 40 41 42 43 44 45 46 47 48 49 50
000
ASUS43 KDMX 280007
RWRIA

WEATHER ROUNDUP FOR IOWA
NATIONAL WEATHER SERVICE DES MOINES IA
700 PM CDT FRI MAR 27 2015

NOTE: "FAIR" INDICATES FEW OR NO CLOUDS BELOW 12,000 FEET WITH NO
SIGNIFICANT WEATHER AND/OR OBSTRUCTIONS TO VISIBILITY.

* - THESE STATIONS ARE NOT NWS STATIONS...THUS NOT UNDER NWS
QUALITY CONTROL.  THEY ALSO DO NOT REPORT WEATHER SUCH
AS PRECIPITATION OR FOG.

IAZ001>003-012>014-020>022-031>034-043>046-280100-
   NORTHWEST IOWA

CITY           SKY/WX    TMP DP  RH WIND       PRES   REMARKS
CARROLL *      MOCLDY    39   7  26 SW5       30.13S
CHEROKEE *     CLOUDY    36  13  39 SW6       30.11F WCI  31
DENISON *      MOCLDY    37  14  38 SW8       30.11S WCI  31
LE MARS *      CLOUDY    37  18  44 S9        30.11F WCI  31
ORANGE CITY *  PTCLDY    36  16  44 SW10      30.09F WCI  28
SHELDON *      CLOUDY    34  14  44 S10       30.08F WCI  26
SIOUX CITY     FLURRIES  35  22  58 SE3       30.13S
6HR MIN TEMP:  34; 6HR MAX TEMP:  41; 6HR PCP:  0.01;

SPENCER        CLOUDY    36  13  38 SW9       30.11F WCI  29
6HR MIN TEMP:  33; 6HR MAX TEMP:  37;

STORM LAKE *   MOCLDY    36  14  41 SW9       30.11F WCI  29
$$

IAZ055>058-069>071-079>083-090>094-280100-
   SOUTHWEST IOWA

CITY           SKY/WX    TMP DP  RH WIND       PRES   REMARKS
ATLANTIC *     MOCLDY    37  18  44 SW8       30.14S WCI  31
AUDUBON *      CLEAR     37   9  30 SW3       30.14R
CLARINDA *     CLOUDY    39  16  38 W3        30.17S
COUNCIL BLFS * CLOUDY    36  19  51 SW7       30.14S WCI  30
CRESTON *      MOCLDY    37  12  35 CALM      30.14S
HARLAN  *      MOCLDY    37  18  44 SW6       30.17S WCI  33
LAMONI         CLOUDY    40  13  33 CALM      30.14R
6HR MIN TEMP:  38; 6HR MAX TEMP:  42;

RED OAK *      MOCLDY    39  18  41 SW7       30.15S WCI  34
SHENANDOAH *   CLOUDY    39  19  45 SW7       30.17R WCI  34
$$

IAZ047>049-059>061-072>074-084-280100-
   CENTRAL IOWA

CITY           SKY/WX    TMP DP  RH WIND       PRES   REMARKS
AMES           CLOUDY    36  12  37 E5        30.14S WCI  32
6HR MIN TEMP:  34; 6HR MAX TEMP:  39;

ANKENY *       CLEAR     37   9  30 CALM      30.15R
CHARITON *     CLEAR     37   9  30 CALM      30.14R
DES MOINES     CLOUDY    39   7  26 W3        30.15S
6HR MIN TEMP:  37; 6HR MAX TEMP:  41;

GRINNELL*      MOCLDY    34  10  37 NE7       30.15S WCI  28
KNOXVILLE *    CLEAR     37   9  30 NE5       30.14R WCI  34
MARSHALLTOWN   PTCLDY    36  12  37 NE5       30.14S WCI  32
6HR MIN TEMP:  33; 6HR MAX TEMP:  39;

PELLA *        CLOUDY    37  15  41 N3        30.16S
PERRY *        MOCLDY    37   9  30 CALM      30.15R
$$

IAZ004>006-015-016-023>025-035-036-280100-
   NORTH CENTRAL IOWA

CITY           SKY/WX    TMP DP  RH WIND       PRES   REMARKS
ALGONA *       CLEAR     34  16  47 SW6       30.14R WCI  29
CLARION *      CLEAR     34  12  40 CALM      30.14S
ESTHERVILLE    CLOUDY    34  15  46 SW10      30.11S WCI  26
6HR MIN TEMP:  30; 6HR MAX TEMP:  36;

FORT DODGE *   CLOUDY    36  10  35 CALM      30.15R
MASON CITY     PTCLDY    34  11  38 CALM      30.15R
6HR MIN TEMP:  31; 6HR MAX TEMP:  38;

FOREST CITY *  CLEAR     32  14  47 CALM      30.13S
IOWA FALLS *     N/A     35  13  39 CALM      30.15S
$$

IAZ007>011-017>019-026>030-037>042-050>054-066-280100-
   NORTHEAST IOWA

CITY           SKY/WX    TMP DP  RH WIND       PRES   REMARKS
CEDAR RAPIDS   CLEAR     35   9  33 N5        30.14S WCI  31
6HR MIN TEMP:  32; 6HR MAX TEMP:  38;

CHARLES CITY * CLEAR     30  12  47 NE9       30.16S WCI  22
CLINTON *      CLEAR     32  12  43 NE7       30.19S WCI  26
DECORAH *      CLEAR     28   9  43 NW3       30.15S
DUBUQUE        CLEAR     31   8  38 NE7       30.15S WCI  24
6HR MIN TEMP:  30; 6HR MAX TEMP:  35;

MONTICELLO *   CLEAR     34  10  37 N3        30.16R
OELWEIN *      CLEAR     30  12  47 NE5       30.17R WCI  25
WATERLOO       CLEAR     33  11  39 NE8       30.15S WCI  26
6HR MIN TEMP:  33; 6HR MAX TEMP:  38;

$$

IAZ064-065-067-068-078-280100-
   EAST CENTRAL IOWA

CITY           SKY/WX    TMP DP  RH WIND       PRES   REMARKS
DAVENPORT      CLEAR     33   7  33 NE7       30.17R WCI  27
6HR MIN TEMP:  32; 6HR MAX TEMP:  38;

IOWA CITY      CLEAR     36   8  31 N6        30.18R WCI  31
6HR MIN TEMP:  34; 6HR MAX TEMP:  39;

MT. PLEASANT * CLEAR     35  10  35 N5        30.16S WCI  31
MUSCATINE *    CLEAR     36   7  30 N7        30.18R WCI  30
QUAD CITIES    CLEAR     35   7  31 NE6       30.16R WCI  30
6HR MIN TEMP:  33; 6HR MAX TEMP:  39;

$$

IAZ062-063-075>077-085>089-095>099-280100-
   SOUTHEAST IOWA

CITY           SKY/WX    TMP DP  RH WIND       PRES   REMARKS
BURLINGTON     CLEAR     35   9  33 N8        30.16S WCI  29
6HR MIN TEMP:  35; 6HR MAX TEMP:  40;

FAIRFIELD *    CLEAR     36   9  32 N5        30.16R WCI  32
FORT MADISON * CLEAR     36  10  35 NE5       30.16S WCI  32
KEOKUK *       CLEAR     37   9  30 NE5       30.15S WCI  34
OSKALOOSA *      N/A     36  10  33 NE6       30.16R WCI  31
CENTERVILLE *  CLEAR     37   9  30 NW3       30.15S
OTTUMWA        MOCLDY    37   8  30 NE6       30.15R WCI  32
6HR MIN TEMP:  36; 6HR MAX TEMP:  41;

WASHINGTON *   CLEAR     36  10  35 NE5       30.16S WCI  32
$$

ABBREVIATIONS USED IN REMARKS
   TC - TEMPERATURES IN CELSIUS
  WCI - WIND CHILL INDEX
   HX - HEAT INDEX
  VSB - VISIBILITY
$$




USA.gov is the U.S. government's official web portal to all federal, state and local government web resources and services.